Location: Bakov nad Jizerou
(50.4784°N, 14.9394°E)
Time: 03:16:44
(UTC+00:00)

Cosmos 1727 Rocket - Pass Details

Date: 27 October 2021
Orbit: 960 x 997 km, 82.9° (Epoch: 07 December)

Event Time Altitude Azimuth Distance (km) Brightness Sun altitude
Rises 17:45:44 0° 337° (NNW) 3,670 7.4 -19.8°
Reaches altitude 10° 17:49:38 10° 313° (NW) 2,711 7.0 -20.4°
Maximum altitude 17:52:28 14° 285° (WNW) 2,451 7.1 -20.9°
Drops below altitude 10° 17:55:17 10° 258° (WSW) 2,698 7.4 -21.3°
Sets 17:59:11 0° 233° (SW) 3,637 7.7 -21.9°
